Location: LDNL
(36.4545°S, 141.6685°E)
Time: 21:50:33
(UTC+11:00)

Courier 1B Rocket - Pass Details

Date: 30 January 2023
Orbit: 920 x 1202 km, 28.2° (Epoch: 26 March)

Event Time Altitude Azimuth Distance (km) Brightness Sun altitude
Rises 08:24:28 0° 297° (WNW) 4,098 7.7 17.9°
Reaches altitude 10° 08:27:31 10° 303° (WNW) 3,127 7.2 18.6°
Maximum altitude 08:34:42 41° 10° (N) 1,643 6.5 20.0°
Drops below altitude 10° 08:41:35 10° 77° (ENE) 3,004 9.1 21.4°
Sets 08:44:28 0° 83° (E) 3,922 9.5 21.9°
